Tracking 27405 objects as of 2-Jun-2023
HD Live streaming from Space Station
objects crossing your sky now

FORMOSAT 3B

Track FORMOSAT 3B now!
10-day predictions
FORMOSAT 3B is classified as:


NORAD ID: 29048
Int'l Code: 2006-011B
Perigee: 769.3 km
Apogee: 832.7 km
Inclination: 72.0 °
Period: 100.7 minutes
Semi major axis: 7172 km
RCS: 0.6095 m2 (medium)
Launch date: April 15, 2006
Source: Taiwan (Republic of China) (ROC)
Launch site: AIR FORCE WESTERN TEST RANGE (AFWTR)
Your satellite tracking list
Your tracking list is empty




NASA's NSSDC Master Catalog

Two Line Element Set (TLE):
1 29048U 06011B   23152.24506276  .00000403  00000-0  17258-3 0  9999
2 29048  71.9666 337.0801 0044198 319.6394  40.1465 14.29357751897865
Source of the keplerian elements: AFSPC